ASL323 KBYH-CYFB

Flight info

Callsign ASL323
Flight time 4h 0m
Altitude 39000
Route KIMEL J35 RUSLR J131 PXV/N0490F380 J73 GUIDO/N0492F390 J73 OBK/N0494F380 J101 BAE/N0496F390 J101 GRB DCT OVORA DCT 52N083W 56N079W 60N074W
Aircraft B748/H-SDE3FGHIM1M2RWXY/LB1

Departure

Time 2026-05-08 16:40
Airport Arkansas International Airport (KBYH)

Arrival

Time 2026-05-08 20:41
Airport Iqaluit Airport (CYFB)
Time Latitude Longitude Altitude Speed Heading
2026-05-08 16:19 35.95471 -89.95052 273 ft 0 kts 80°
2026-05-08 16:31 35.95466 -89.95074 277 ft 3 kts 44°
2026-05-08 16:32 35.95459 -89.95082 275 ft 0 kts 27°
2026-05-08 16:35 35.95465 -89.95078 275 ft 4 kts 27°
2026-05-08 16:35 35.95525 -89.95039 273 ft 14 kts 28°
2026-05-08 16:35 35.95610 -89.94966 273 ft 4 kts 72°
2026-05-08 16:36 35.95614 -89.94942 273 ft 4 kts 77°
2026-05-08 16:36 35.95622 -89.94900 273 ft 6 kts 77°
2026-05-08 16:36 35.95627 -89.94842 273 ft 7 kts 97°
2026-05-08 16:36 35.95598 -89.94763 273 ft 14 kts 116°
2026-05-08 16:37 35.95534 -89.94684 273 ft 11 kts 164°
2026-05-08 16:37 35.95463 -89.94686 274 ft 10 kts 184°
2026-05-08 16:37 35.95394 -89.94692 274 ft 11 kts 184°
2026-05-08 16:37 35.95317 -89.94694 274 ft 11 kts 180°
2026-05-08 16:38 35.95225 -89.94694 274 ft 15 kts 179°
2026-05-08 16:38 35.95107 -89.94694 274 ft 19 kts 180°
2026-05-08 16:38 35.94968 -89.94695 274 ft 21 kts 181°
2026-05-08 16:38 35.94860 -89.94610 274 ft 19 kts 107°
2026-05-08 16:39 35.94850 -89.94443 273 ft 16 kts 84°
2026-05-08 16:39 35.94877 -89.94406 272 ft 5 kts
2026-05-08 16:39 35.95108 -89.94393 274 ft 66 kts
2026-05-08 16:39 35.95761 -89.94401 274 ft 122 kts 359°
2026-05-08 16:40 35.96767 -89.94400 276 ft 165 kts
2026-05-08 16:40 35.98042 -89.94417 295 ft 198 kts 358°
2026-05-08 16:40 35.99477 -89.94406 650 ft 210 kts 359°
2026-05-08 16:40 36.00996 -89.94410 1234 ft 225 kts 359°
2026-05-08 16:41 36.02590 -89.94441 2128 ft 232 kts 359°
2026-05-08 16:41 36.04245 -89.94475 2684 ft 249 kts 359°
2026-05-08 16:41 36.06042 -89.94509 3204 ft 267 kts 359°
2026-05-08 16:42 36.09848 -89.94601 4749 ft 278 kts 359°
2026-05-08 16:42 36.11785 -89.94637 5607 ft 278 kts 359°
2026-05-08 16:42 36.13717 -89.94676 6512 ft 277 kts 359°
2026-05-08 16:42 36.15649 -89.94709 7324 ft 278 kts 358°
2026-05-08 16:43 36.17588 -89.94723 8053 ft 280 kts 359°
2026-05-08 16:43 36.19553 -89.94706 8780 ft 283 kts 358°
2026-05-08 16:43 36.21532 -89.94672 9483 ft 286 kts 359°
2026-05-08 16:43 36.23538 -89.94625 10155 ft 290 kts 358°
2026-05-08 16:44 36.25592 -89.94565 10653 ft 301 kts 358°
2026-05-08 16:44 36.27712 -89.94492 11041 ft 316 kts 358°
2026-05-08 16:44 36.29979 -89.94408 11380 ft 334 kts 358°
2026-05-08 16:44 36.32359 -89.94314 11788 ft 349 kts 359°
2026-05-08 16:45 36.34821 -89.94209 12437 ft 357 kts 358°
2026-05-08 16:45 36.37328 -89.94083 13158 ft 364 kts
2026-05-08 16:45 36.39831 -89.93370 13889 ft 378 kts 19°
2026-05-08 16:45 36.42119 -89.91667 14533 ft 391 kts 37°
2026-05-08 16:46 36.43944 -89.89156 15135 ft 403 kts 53°
2026-05-08 16:46 36.45391 -89.86116 15733 ft 412 kts 59°
2026-05-08 16:46 36.46767 -89.82964 16329 ft 418 kts 57°
2026-05-08 16:46 36.48288 -89.79865 16927 ft 422 kts 51°
2026-05-08 16:47 36.50135 -89.77053 17540 ft 424 kts 42°
2026-05-08 16:47 36.52228 -89.74462 18202 ft 427 kts 39°
2026-05-08 16:47 36.54377 -89.71863 18772 ft 434 kts 41°
2026-05-08 16:47 36.56421 -89.69061 19318 ft 441 kts 45°
2026-05-08 16:48 36.58416 -89.66140 19878 ft 445 kts 44°
2026-05-08 16:48 36.60495 -89.63255 20434 ft 448 kts 42°
2026-05-08 16:48 36.62638 -89.60407 20982 ft 453 kts 42°
2026-05-08 16:48 36.64777 -89.57500 21525 ft 457 kts 43°
2026-05-08 16:49 36.66907 -89.54519 22053 ft 462 kts 44°
2026-05-08 16:49 36.69026 -89.51568 22563 ft 466 kts 43°
2026-05-08 16:49 36.71243 -89.48532 23084 ft 470 kts 43°
2026-05-08 16:49 36.73420 -89.45547 23569 ft 474 kts 43°
2026-05-08 16:50 36.75634 -89.42477 23993 ft 478 kts 43°
2026-05-08 16:50 36.77870 -89.39370 24388 ft 482 kts 43°
2026-05-08 16:50 36.80123 -89.36252 24778 ft 486 kts 43°
2026-05-08 16:50 36.82399 -89.33106 25151 ft 490 kts 43°
2026-05-08 16:51 36.84692 -89.29925 25532 ft 494 kts 43°
2026-05-08 16:51 36.87001 -89.26713 25915 ft 498 kts 43°
2026-05-08 16:51 36.89324 -89.23482 26308 ft 501 kts 43°
2026-05-08 16:51 36.91661 -89.20234 26677 ft 505 kts 43°
2026-05-08 16:52 36.94020 -89.16949 27049 ft 509 kts 43°
2026-05-08 16:52 36.96363 -89.13681 27413 ft 512 kts 43°
2026-05-08 16:52 36.98752 -89.10345 27793 ft 516 kts 43°
2026-05-08 16:52 37.01155 -89.06987 28219 ft 519 kts 44°
2026-05-08 16:53 37.05994 -89.00216 29026 ft 524 kts 44°
2026-05-08 16:53 37.08438 -88.96791 29432 ft 527 kts 44°
2026-05-08 16:53 37.10853 -88.93403 29829 ft 530 kts 44°
2026-05-08 16:54 37.13314 -88.89946 30178 ft 533 kts 44°
2026-05-08 16:54 37.15788 -88.86468 30489 ft 536 kts 44°
2026-05-08 16:54 37.18274 -88.82969 30786 ft 540 kts 43°
2026-05-08 16:54 37.20784 -88.79433 31066 ft 543 kts 43°
2026-05-08 16:55 37.23302 -88.75883 31355 ft 547 kts 43°
2026-05-08 16:55 37.25841 -88.72297 31630 ft 550 kts 43°
2026-05-08 16:55 37.28393 -88.68689 31894 ft 554 kts 43°
2026-05-08 16:55 37.30961 -88.65055 32154 ft 558 kts 43°
2026-05-08 16:56 37.33547 -88.61392 32396 ft 562 kts 43°
2026-05-08 16:56 37.36148 -88.57702 32656 ft 565 kts 43°
2026-05-08 16:56 37.38763 -88.53989 32890 ft 569 kts 43°
2026-05-08 16:56 37.41392 -88.50251 33122 ft 573 kts 43°
2026-05-08 16:57 37.44035 -88.46489 33447 ft 575 kts 43°
2026-05-08 16:57 37.46689 -88.42705 33820 ft 576 kts 43°
2026-05-08 16:57 37.49347 -88.38915 34134 ft 577 kts 43°
2026-05-08 16:57 37.52002 -88.35123 34422 ft 578 kts 43°
2026-05-08 16:58 37.54628 -88.31368 34700 ft 579 kts 43°
2026-05-08 16:58 37.57290 -88.27557 34980 ft 578 kts 42°
2026-05-08 16:58 37.62590 -88.19954 35031 ft 575 kts 42°
2026-05-08 16:59 37.67870 -88.12367 35029 ft 574 kts 42°
2026-05-08 16:59 37.73135 -88.04779 35043 ft 573 kts 43°
2026-05-08 17:00 37.78337 -87.97267 35044 ft 570 kts 43°
2026-05-08 17:00 37.83548 -87.89725 35043 ft 569 kts 43°
2026-05-08 17:01 37.89105 -87.82741 35067 ft 554 kts 26°
2026-05-08 17:01 37.92332 -87.80189 35069 ft 540 kts 17°
2026-05-08 17:01 37.95736 -87.78344 35041 ft 526 kts
2026-05-08 17:02 37.99218 -87.77200 35041 ft 510 kts 358°
2026-05-08 17:02 38.02699 -87.76725 35042 ft 496 kts 349°
2026-05-08 17:02 38.09512 -87.76929 35024 ft 489 kts 346°
2026-05-08 17:03 38.16288 -87.77215 35021 ft 489 kts 346°
2026-05-08 17:03 38.23086 -87.77496 35030 ft 488 kts 347°
2026-05-08 17:04 38.29888 -87.77782 35021 ft 488 kts 347°
2026-05-08 17:04 38.36686 -87.78067 35018 ft 488 kts 347°
2026-05-08 17:05 38.43437 -87.78350 35013 ft 488 kts 347°
2026-05-08 17:05 38.50242 -87.78637 35010 ft 488 kts 347°
2026-05-08 17:06 38.57046 -87.78923 35007 ft 489 kts 347°
2026-05-08 17:06 38.63842 -87.79211 35045 ft 489 kts 347°
2026-05-08 17:07 38.70597 -87.79495 34997 ft 488 kts 347°
2026-05-08 17:07 38.77393 -87.79784 34996 ft 488 kts 347°
2026-05-08 17:08 38.84196 -87.80073 34991 ft 489 kts 347°
2026-05-08 17:08 38.90997 -87.80362 34998 ft 488 kts 347°
2026-05-08 17:09 38.97776 -87.80650 34987 ft 486 kts 347°
2026-05-08 17:09 39.04536 -87.80940 34979 ft 485 kts 347°
2026-05-08 17:10 39.11294 -87.81228 35011 ft 485 kts 346°
2026-05-08 17:10 39.17986 -87.81514 34979 ft 482 kts 346°
2026-05-08 17:11 39.24698 -87.81805 34974 ft 482 kts 346°
2026-05-08 17:11 39.31399 -87.82092 34969 ft 482 kts 346°
2026-05-08 17:12 39.38108 -87.82381 34972 ft 481 kts 346°
2026-05-08 17:12 39.44802 -87.82671 34965 ft 481 kts 346°
2026-05-08 17:13 39.51431 -87.82958 34955 ft 481 kts 346°
2026-05-08 17:13 39.58130 -87.83246 34949 ft 481 kts 346°
2026-05-08 17:14 39.64823 -87.83536 34953 ft 481 kts 346°
2026-05-08 17:14 39.71513 -87.83826 34950 ft 480 kts 346°
2026-05-08 17:15 39.78153 -87.84115 34948 ft 481 kts 346°
2026-05-08 17:15 39.84846 -87.84405 34947 ft 480 kts 346°
2026-05-08 17:16 39.91513 -87.84698 34945 ft 479 kts 346°
2026-05-08 17:16 39.98193 -87.84989 34939 ft 479 kts 346°
2026-05-08 17:17 40.04859 -87.85281 34927 ft 479 kts 346°
2026-05-08 17:17 40.11508 -87.85573 34943 ft 478 kts 346°
2026-05-08 17:18 40.18162 -87.85866 34948 ft 478 kts 346°
2026-05-08 17:18 40.24781 -87.86157 34967 ft 478 kts 346°
2026-05-08 17:19 40.31413 -87.86447 34933 ft 475 kts 346°
2026-05-08 17:19 40.38012 -87.86744 34929 ft 474 kts 346°
2026-05-08 17:20 40.44612 -87.87036 34917 ft 474 kts 346°
2026-05-08 17:20 40.50098 -87.87281 34909 ft 473 kts 346°
2026-05-08 17:21 40.56673 -87.87576 34906 ft 473 kts 346°
2026-05-08 17:21 40.64443 -87.87931 34936 ft 485 kts 347°
2026-05-08 17:22 40.70064 -87.88171 34949 ft 486 kts 346°
2026-05-08 17:22 40.76821 -87.88482 34951 ft 486 kts 346°
2026-05-08 17:23 40.83583 -87.88783 34969 ft 486 kts 346°
2026-05-08 17:23 40.90352 -87.89090 35023 ft 486 kts 347°
2026-05-08 17:24 40.97108 -87.89394 35025 ft 485 kts 347°
2026-05-08 17:24 41.03859 -87.89701 35026 ft 485 kts 347°
2026-05-08 17:25 41.10619 -87.90008 35026 ft 485 kts 347°
2026-05-08 17:25 41.17320 -87.90313 35049 ft 484 kts 347°
2026-05-08 17:26 41.24059 -87.90620 35047 ft 485 kts 347°
2026-05-08 17:26 41.30811 -87.90929 35048 ft 485 kts 347°
2026-05-08 17:27 41.37559 -87.91238 35082 ft 485 kts 347°
2026-05-08 17:27 41.44315 -87.91547 35079 ft 485 kts 347°
2026-05-08 17:28 41.51020 -87.91857 35091 ft 485 kts 347°
2026-05-08 17:28 41.57776 -87.92167 35121 ft 485 kts 347°
2026-05-08 17:29 41.64536 -87.92481 34929 ft 486 kts 347°
2026-05-08 17:29 41.71285 -87.92789 34922 ft 483 kts 347°
2026-05-08 17:30 41.77962 -87.93104 34901 ft 484 kts 347°
2026-05-08 17:30 41.84693 -87.93413 34901 ft 483 kts 347°
2026-05-08 17:31 41.91423 -87.93729 34902 ft 483 kts 347°
2026-05-08 17:31 41.98139 -87.94041 34920 ft 483 kts 347°
2026-05-08 17:32 42.04852 -87.94354 34920 ft 483 kts 347°
2026-05-08 17:32 42.11531 -87.94668 34921 ft 483 kts 347°
2026-05-08 17:33 42.18247 -87.94983 34958 ft 483 kts 347°
2026-05-08 17:33 42.24791 -87.96141 34933 ft 464 kts 335°
2026-05-08 17:34 42.31026 -87.98422 34927 ft 464 kts 335°
2026-05-08 17:34 42.37240 -88.00707 34929 ft 464 kts 335°
2026-05-08 17:35 42.43489 -88.03009 34922 ft 466 kts 335°
2026-05-08 17:35 42.49761 -88.05321 34924 ft 466 kts 335°
2026-05-08 17:36 42.56002 -88.07630 34925 ft 467 kts 335°
2026-05-08 17:36 42.62268 -88.09952 34909 ft 467 kts 336°
2026-05-08 17:37 42.68552 -88.12284 34915 ft 468 kts 336°
2026-05-08 17:37 42.74829 -88.14620 34902 ft 468 kts 336°
2026-05-08 17:38 42.81108 -88.16962 34899 ft 468 kts 336°
2026-05-08 17:38 42.87395 -88.19310 34899 ft 468 kts 336°
2026-05-08 17:39 42.93637 -88.21648 34910 ft 468 kts 336°
2026-05-08 17:39 42.99919 -88.24005 34908 ft 468 kts 336°
2026-05-08 17:40 43.06213 -88.26371 34913 ft 468 kts 336°
2026-05-08 17:40 43.12657 -88.28163 34918 ft 483 kts 348°
2026-05-08 17:41 43.19438 -88.27962 34911 ft 492 kts 353°
2026-05-08 17:41 43.26287 -88.27546 34883 ft 492 kts 354°
2026-05-08 17:42 43.33136 -88.27127 34881 ft 492 kts 354°
2026-05-08 17:42 43.39982 -88.26708 34871 ft 492 kts 354°
2026-05-08 17:43 43.46824 -88.26287 34864 ft 492 kts 354°
2026-05-08 17:43 43.53671 -88.25867 34868 ft 493 kts 354°
2026-05-08 17:44 43.60491 -88.25446 34870 ft 493 kts 354°
2026-05-08 17:44 43.67346 -88.25023 34868 ft 493 kts 354°
2026-05-08 17:45 43.74208 -88.24597 34865 ft 493 kts 354°
2026-05-08 17:45 43.81079 -88.24171 34870 ft 493 kts 354°
2026-05-08 17:46 43.87903 -88.23746 34862 ft 493 kts 354°
2026-05-08 17:46 43.94769 -88.23318 34856 ft 493 kts 354°
2026-05-08 17:47 44.01633 -88.22889 34885 ft 493 kts 354°
2026-05-08 17:47 44.07334 -88.22531 34856 ft 493 kts 355°
2026-05-08 17:48 44.15352 -88.22029 34857 ft 493 kts 355°
2026-05-08 17:48 44.22178 -88.21599 34877 ft 494 kts 355°
2026-05-08 17:49 44.29038 -88.21165 34855 ft 493 kts 355°
2026-05-08 17:49 44.35911 -88.20731 34845 ft 493 kts 355°
2026-05-08 17:50 44.42782 -88.20296 34838 ft 494 kts 355°
2026-05-08 17:50 44.49603 -88.19861 34847 ft 493 kts 355°
2026-05-08 17:51 44.56466 -88.19007 34859 ft 503 kts
2026-05-08 17:51 44.63255 -88.16303 34846 ft 507 kts 10°
2026-05-08 17:52 44.70017 -88.13500 34844 ft 507 kts 10°
2026-05-08 17:53 44.80170 -88.09296 34831 ft 506 kts 10°
2026-05-08 17:53 44.86892 -88.06502 34822 ft 507 kts
2026-05-08 17:54 44.93677 -88.03675 34821 ft 507 kts 10°
2026-05-08 17:54 45.00447 -88.00847 34827 ft 507 kts 10°
2026-05-08 17:55 45.07213 -87.98014 34830 ft 506 kts 10°
2026-05-08 17:55 45.13971 -87.95177 34829 ft 506 kts 10°
2026-05-08 17:56 45.20696 -87.92347 34826 ft 506 kts 10°
2026-05-08 17:56 45.27455 -87.89496 34822 ft 506 kts 10°
2026-05-08 17:57 45.34219 -87.86635 34820 ft 506 kts 11°
2026-05-08 17:57 45.40964 -87.83775 34804 ft 506 kts 11°
2026-05-08 17:58 45.47717 -87.80905 34807 ft 506 kts 11°
2026-05-08 17:58 45.54439 -87.78041 34809 ft 506 kts 11°
2026-05-08 17:59 45.61198 -87.75154 34813 ft 506 kts 11°
2026-05-08 17:59 45.67903 -87.72282 34814 ft 506 kts 11°
2026-05-08 18:00 45.74639 -87.69391 34807 ft 506 kts 11°
2026-05-08 18:00 45.84754 -87.65035 34808 ft 505 kts 11°
2026-05-08 18:01 45.91498 -87.62121 34816 ft 506 kts 11°
2026-05-08 18:01 45.98204 -87.59216 34811 ft 505 kts 11°
2026-05-08 18:02 46.03847 -87.56766 34806 ft 505 kts 11°
2026-05-08 18:02 46.11682 -87.53356 34794 ft 505 kts 11°
2026-05-08 18:03 46.18409 -87.50420 34787 ft 503 kts 12°
2026-05-08 18:03 46.25104 -87.47490 34776 ft 502 kts 12°
2026-05-08 18:04 46.31747 -87.44577 34774 ft 502 kts 12°
2026-05-08 18:04 46.38429 -87.41637 34782 ft 501 kts 12°
2026-05-08 18:05 46.45105 -87.38695 34820 ft 501 kts 12°
2026-05-08 18:05 46.51775 -87.35746 34826 ft 501 kts 12°
2026-05-08 18:06 46.58448 -87.32789 34827 ft 500 kts 12°
2026-05-08 18:06 46.65106 -87.29830 34829 ft 500 kts 12°
2026-05-08 18:07 46.71728 -87.26880 34834 ft 500 kts 12°
2026-05-08 18:07 46.78402 -87.23899 34836 ft 500 kts 12°
2026-05-08 18:08 46.85069 -87.20914 34835 ft 500 kts 12°
2026-05-08 18:08 46.91686 -87.17943 34843 ft 500 kts 12°
2026-05-08 18:09 46.98335 -87.14950 34828 ft 499 kts 12°
2026-05-08 18:09 47.04976 -87.11953 34833 ft 500 kts 12°
2026-05-08 18:10 47.10515 -87.09447 34831 ft 500 kts 12°
2026-05-08 18:10 47.17172 -87.06428 34825 ft 500 kts 12°
2026-05-08 18:11 47.23823 -87.03405 34824 ft 500 kts 12°
2026-05-08 18:11 47.30481 -87.00369 34825 ft 500 kts 12°
2026-05-08 18:12 47.37127 -86.97331 34822 ft 500 kts 12°
2026-05-08 18:12 47.43764 -86.94291 34826 ft 499 kts 12°
2026-05-08 18:13 47.50395 -86.91244 34829 ft 499 kts 12°
2026-05-08 18:13 47.56995 -86.88203 34817 ft 500 kts 12°
2026-05-08 18:14 47.63629 -86.85139 34817 ft 499 kts 12°
2026-05-08 18:14 47.70271 -86.82063 34814 ft 499 kts 12°
2026-05-08 18:15 47.76921 -86.78974 34834 ft 499 kts 12°
2026-05-08 18:15 47.83512 -86.75905 34816 ft 499 kts 12°
2026-05-08 18:16 47.90139 -86.72812 34813 ft 499 kts 12°
2026-05-08 18:16 47.96769 -86.69707 34829 ft 499 kts 12°
2026-05-08 18:17 48.03400 -86.66595 34808 ft 499 kts 12°
2026-05-08 18:17 48.10042 -86.63469 34809 ft 499 kts 12°
2026-05-08 18:18 48.16622 -86.60363 34809 ft 499 kts 12°
2026-05-08 18:18 48.23250 -86.57227 34820 ft 499 kts 13°
2026-05-08 18:19 48.29900 -86.54072 34822 ft 500 kts 13°
2026-05-08 18:19 48.36536 -86.50914 34827 ft 500 kts 13°
2026-05-08 18:20 48.43188 -86.47741 34819 ft 501 kts 13°
2026-05-08 18:20 48.49803 -86.44576 34821 ft 501 kts 13°
2026-05-08 18:21 48.56459 -86.41383 34782 ft 501 kts 13°
2026-05-08 18:21 48.63119 -86.38180 34761 ft 502 kts 13°
2026-05-08 18:22 48.69784 -86.34963 34752 ft 502 kts 13°
2026-05-08 18:22 48.76282 -86.30929 34764 ft 513 kts 27°
2026-05-08 18:23 48.82307 -86.25256 34759 ft 513 kts 27°
2026-05-08 18:23 48.88366 -86.19516 34784 ft 513 kts 27°
2026-05-08 18:24 48.94431 -86.13769 34778 ft 513 kts 27°
2026-05-08 18:24 49.00484 -86.08004 34780 ft 513 kts 27°
2026-05-08 18:25 49.06545 -86.02225 34769 ft 514 kts 27°
2026-05-08 18:25 49.12612 -85.96415 34762 ft 514 kts 27°
2026-05-08 18:26 49.18679 -85.90594 34768 ft 514 kts 27°
2026-05-08 18:26 49.24702 -85.84795 34765 ft 515 kts 27°
2026-05-08 18:27 49.29788 -85.79887 34753 ft 515 kts 27°
2026-05-08 18:27 49.36836 -85.73064 34745 ft 515 kts 27°
2026-05-08 18:28 49.42907 -85.67167 34755 ft 515 kts 28°
2026-05-08 18:28 49.48706 -85.61519 34740 ft 516 kts 28°
2026-05-08 18:29 49.54774 -85.55591 34730 ft 516 kts 28°
2026-05-08 18:29 49.60856 -85.49632 34747 ft 516 kts 28°
2026-05-08 18:30 49.66918 -85.43676 34747 ft 517 kts 28°
2026-05-08 18:30 49.72936 -85.37743 34732 ft 517 kts 28°
2026-05-08 18:31 49.79039 -85.31710 34724 ft 517 kts 28°
2026-05-08 18:31 49.85078 -85.25722 34726 ft 517 kts 28°
2026-05-08 18:32 49.91142 -85.19691 34716 ft 518 kts 29°
2026-05-08 18:32 49.97204 -85.13642 34706 ft 518 kts 29°
2026-05-08 18:33 50.03273 -85.07569 34711 ft 518 kts 29°
2026-05-08 18:33 50.09342 -85.01477 34729 ft 518 kts 29°
2026-05-08 18:34 50.15403 -84.95375 34710 ft 519 kts 29°
2026-05-08 18:34 50.21413 -84.89306 34702 ft 519 kts 29°
2026-05-08 18:35 50.27488 -84.83152 34705 ft 519 kts 29°
2026-05-08 18:35 50.33546 -84.76997 34694 ft 518 kts 29°
2026-05-08 18:36 50.39539 -84.70887 34685 ft 516 kts 30°
2026-05-08 18:36 50.45550 -84.64743 34684 ft 516 kts 30°
2026-05-08 18:37 50.51576 -84.58563 34689 ft 516 kts 30°
2026-05-08 18:37 50.57585 -84.52381 34693 ft 516 kts 30°
2026-05-08 18:38 50.63554 -84.46222 34692 ft 516 kts 30°
2026-05-08 18:38 50.69556 -84.40010 34689 ft 516 kts 30°
2026-05-08 18:39 50.75563 -84.33774 34697 ft 516 kts 30°
2026-05-08 18:39 50.81546 -84.27541 34692 ft 515 kts 30°
2026-05-08 18:40 50.87537 -84.21282 34687 ft 515 kts 30°
2026-05-08 18:40 50.93471 -84.15062 34687 ft 515 kts 30°
2026-05-08 18:41 50.99452 -84.08775 34688 ft 515 kts 30°
2026-05-08 18:41 51.05431 -84.02468 34680 ft 515 kts 30°
2026-05-08 18:42 51.11361 -83.96195 34682 ft 515 kts 30°
2026-05-08 18:42 51.17336 -83.89853 34688 ft 515 kts 30°
2026-05-08 18:43 51.23306 -83.83497 34679 ft 515 kts 30°
2026-05-08 18:43 51.29235 -83.77166 34674 ft 516 kts 30°
2026-05-08 18:44 51.35196 -83.70778 34676 ft 516 kts 30°
2026-05-08 18:44 51.41158 -83.64371 34689 ft 516 kts 30°
2026-05-08 18:45 51.47117 -83.57945 34659 ft 516 kts 30°
2026-05-08 18:45 51.53071 -83.51504 34662 ft 516 kts 31°
2026-05-08 18:46 51.58986 -83.45085 34660 ft 516 kts 31°
2026-05-08 18:46 51.64936 -83.38608 34662 ft 516 kts 31°
2026-05-08 18:47 51.70878 -83.32117 34663 ft 515 kts 31°
2026-05-08 18:47 51.76775 -83.25656 34661 ft 515 kts 31°
2026-05-08 18:48 51.82704 -83.19138 34661 ft 516 kts 31°
2026-05-08 18:48 51.88643 -83.12588 34662 ft 516 kts 31°
2026-05-08 18:49 51.94576 -83.06023 34662 ft 516 kts 31°
2026-05-08 18:49 52.00535 -82.99521 34662 ft 514 kts 26°
2026-05-08 18:50 52.06754 -82.93941 34658 ft 513 kts 25°
2026-05-08 18:50 52.13019 -82.88330 34653 ft 514 kts 26°
2026-05-08 18:51 52.19271 -82.82667 34653 ft 514 kts 26°
2026-05-08 18:51 52.25525 -82.77028 34652 ft 514 kts 26°
2026-05-08 18:52 52.31784 -82.71331 34649 ft 514 kts 26°
2026-05-08 18:52 52.38008 -82.65672 34644 ft 514 kts 26°
2026-05-08 18:53 52.44250 -82.59961 34646 ft 514 kts 26°
2026-05-08 18:53 52.50506 -82.54229 34647 ft 514 kts 26°
2026-05-08 18:54 52.56752 -82.48482 34645 ft 514 kts 27°
2026-05-08 18:54 52.62954 -82.42759 34644 ft 515 kts 27°
2026-05-08 18:55 52.72345 -82.34057 34639 ft 515 kts 27°
2026-05-08 18:56 52.78583 -82.28253 34640 ft 515 kts 27°
2026-05-08 18:56 52.84783 -82.22463 34639 ft 514 kts 27°
2026-05-08 18:57 52.91019 -82.16622 34639 ft 515 kts 27°
2026-05-08 18:57 52.97253 -82.10762 34639 ft 515 kts 27°
2026-05-08 18:58 53.03488 -82.04884 34630 ft 515 kts 28°
2026-05-08 18:58 53.08659 -81.99991 34636 ft 514 kts 28°
2026-05-08 18:59 53.15898 -81.93121 34630 ft 514 kts 28°
2026-05-08 18:59 53.21110 -81.88158 34627 ft 514 kts 28°
2026-05-08 19:00 53.27322 -81.82224 34629 ft 514 kts 28°
2026-05-08 19:00 53.33504 -81.76298 34631 ft 515 kts 28°
2026-05-08 19:01 53.39736 -81.70306 34626 ft 516 kts 28°
2026-05-08 19:01 53.45954 -81.64305 34631 ft 516 kts 28°
2026-05-08 19:02 53.52181 -81.58275 34626 ft 516 kts 28°
2026-05-08 19:02 53.58400 -81.52232 34629 ft 516 kts 28°
2026-05-08 19:03 53.64589 -81.46198 34624 ft 516 kts 28°
2026-05-08 19:03 53.70803 -81.40120 34619 ft 516 kts 29°
2026-05-08 19:04 53.76987 -81.34048 34619 ft 514 kts 29°
2026-05-08 19:04 53.83164 -81.27963 34616 ft 514 kts 29°
2026-05-08 19:05 53.89342 -81.21856 34614 ft 513 kts 29°
2026-05-08 19:05 53.95477 -81.15771 34628 ft 513 kts 29°
2026-05-08 19:06 54.01648 -81.09628 34630 ft 513 kts 29°
2026-05-08 19:06 54.07830 -81.03454 34631 ft 514 kts 29°
2026-05-08 19:07 54.13954 -80.97316 34631 ft 514 kts 30°
2026-05-08 19:07 54.20118 -80.91116 34635 ft 515 kts 30°
2026-05-08 19:08 54.26291 -80.84885 34634 ft 515 kts 30°
2026-05-08 19:08 54.32452 -80.78645 34639 ft 515 kts 30°
2026-05-08 19:09 54.38624 -80.72372 34642 ft 515 kts 30°
2026-05-08 19:09 54.44806 -80.66066 34639 ft 516 kts 30°
2026-05-08 19:10 54.50933 -80.59793 34639 ft 516 kts 30°
2026-05-08 19:10 54.57104 -80.53454 34639 ft 516 kts 30°
2026-05-08 19:11 54.63266 -80.47102 34643 ft 516 kts 30°
2026-05-08 19:11 54.69449 -80.40706 34639 ft 516 kts 30°
2026-05-08 19:12 54.75575 -80.34343 34639 ft 516 kts 31°
2026-05-08 19:12 54.81722 -80.27938 34638 ft 515 kts 31°
2026-05-08 19:13 54.87868 -80.21510 34641 ft 516 kts 31°
2026-05-08 19:13 54.94011 -80.15063 34645 ft 516 kts 31°
2026-05-08 19:14 55.00122 -80.08625 34643 ft 515 kts 31°
2026-05-08 19:14 55.06250 -80.02147 34643 ft 515 kts 31°
2026-05-08 19:15 55.12376 -79.95646 34643 ft 515 kts 31°
2026-05-08 19:15 55.18500 -79.89125 34642 ft 515 kts 31°
2026-05-08 19:16 55.24625 -79.82578 34644 ft 515 kts 31°
2026-05-08 19:16 55.30742 -79.76016 34648 ft 515 kts 31°
2026-05-08 19:17 55.36813 -79.69480 34645 ft 515 kts 32°
2026-05-08 19:17 55.42909 -79.62893 34644 ft 514 kts 32°
2026-05-08 19:18 55.49015 -79.56271 34640 ft 515 kts 32°
2026-05-08 19:18 55.55116 -79.49629 34640 ft 514 kts 32°
2026-05-08 19:19 55.61200 -79.42983 34645 ft 514 kts 32°
2026-05-08 19:19 55.67283 -79.36312 34646 ft 514 kts 32°
2026-05-08 19:20 55.73331 -79.29654 34647 ft 514 kts 32°
2026-05-08 19:20 55.79420 -79.22928 34644 ft 514 kts 32°
2026-05-08 19:21 55.85484 -79.16204 34645 ft 513 kts 32°
2026-05-08 19:21 55.91548 -79.09454 34645 ft 513 kts 32°
2026-05-08 19:22 55.97605 -79.02687 34645 ft 513 kts 32°
2026-05-08 19:22 56.03630 -78.95986 34645 ft 513 kts 31°
2026-05-08 19:23 56.09748 -78.89352 34646 ft 513 kts 32°
2026-05-08 19:23 56.15823 -78.82616 34647 ft 513 kts 32°
2026-05-08 19:24 56.21876 -78.75953 34648 ft 513 kts 32°
2026-05-08 19:24 56.27954 -78.69195 34649 ft 513 kts 32°
2026-05-08 19:25 56.34035 -78.62431 34650 ft 513 kts 32°
2026-05-08 19:25 56.40114 -78.55632 34651 ft 514 kts 32°
2026-05-08 19:26 56.46185 -78.48821 34651 ft 514 kts 32°
2026-05-08 19:26 56.52258 -78.41979 34654 ft 514 kts 32°
2026-05-08 19:27 56.58323 -78.35122 34653 ft 514 kts 33°
2026-05-08 19:27 56.64352 -78.28280 34654 ft 514 kts 32°
2026-05-08 19:28 56.70420 -78.21365 34654 ft 514 kts 33°
2026-05-08 19:28 56.76484 -78.14429 34658 ft 514 kts 33°
2026-05-08 19:29 56.82538 -78.07476 34656 ft 514 kts 33°
2026-05-08 19:29 56.88594 -78.00498 34656 ft 515 kts 33°
2026-05-08 19:30 56.94638 -77.93502 34654 ft 513 kts 33°
2026-05-08 19:30 57.00666 -77.86499 34655 ft 513 kts 33°
2026-05-08 19:31 57.06690 -77.79476 34652 ft 513 kts 33°
2026-05-08 19:31 57.12708 -77.72427 34652 ft 512 kts 33°
2026-05-08 19:32 57.18690 -77.65401 34653 ft 513 kts 33°
2026-05-08 19:32 57.24695 -77.58311 34656 ft 512 kts 33°
2026-05-08 19:33 57.30715 -77.51181 34657 ft 512 kts 34°
2026-05-08 19:33 57.36708 -77.44055 34658 ft 512 kts 33°
2026-05-08 19:34 57.42704 -77.36894 34661 ft 512 kts 34°
2026-05-08 19:34 57.48654 -77.29763 34663 ft 512 kts 34°
2026-05-08 19:35 57.54646 -77.22552 34668 ft 512 kts 34°
2026-05-08 19:35 57.60617 -77.15337 34670 ft 511 kts 34°
2026-05-08 19:36 57.66590 -77.08094 34672 ft 511 kts 34°
2026-05-08 19:36 57.72563 -77.00818 34674 ft 511 kts 34°
2026-05-08 19:37 57.78482 -76.93580 34685 ft 511 kts 34°
2026-05-08 19:37 57.84433 -76.86278 34680 ft 510 kts 35°
2026-05-08 19:38 57.90377 -76.78948 34675 ft 511 kts 34°
2026-05-08 19:38 57.96322 -76.71592 34679 ft 511 kts 35°
2026-05-08 19:39 58.02251 -76.64224 34679 ft 511 kts 34°
2026-05-08 19:39 58.08177 -76.56832 34686 ft 510 kts 35°
2026-05-08 19:40 58.14097 -76.49415 34681 ft 510 kts 34°
2026-05-08 19:40 58.20015 -76.41972 34688 ft 510 kts 35°
2026-05-08 19:41 58.25901 -76.34545 34675 ft 511 kts 35°
2026-05-08 19:41 58.31815 -76.27041 34676 ft 510 kts 35°
2026-05-08 19:42 58.37722 -76.19521 34666 ft 510 kts 35°
2026-05-08 19:42 58.43629 -76.11970 34666 ft 510 kts 35°
2026-05-08 19:43 58.49498 -76.04436 34666 ft 511 kts 35°
2026-05-08 19:43 58.55404 -75.96824 34660 ft 511 kts 36°
2026-05-08 19:44 58.60305 -75.90483 34663 ft 510 kts 36°
2026-05-08 19:44 58.67144 -75.81599 34663 ft 510 kts 36°
2026-05-08 19:45 58.72037 -75.75216 34666 ft 510 kts 36°
2026-05-08 19:45 58.77913 -75.67522 34666 ft 510 kts 36°
2026-05-08 19:46 58.83773 -75.59816 34674 ft 510 kts 36°
2026-05-08 19:46 58.92554 -75.48209 34668 ft 509 kts 36°
2026-05-08 19:47 58.98408 -75.40430 34665 ft 509 kts 36°
2026-05-08 19:47 59.04251 -75.32634 34667 ft 509 kts 36°
2026-05-08 19:48 59.10087 -75.24814 34665 ft 509 kts 36°
2026-05-08 19:48 59.15921 -75.16964 34663 ft 509 kts 37°
2026-05-08 19:49 59.21718 -75.09131 34665 ft 509 kts 37°
2026-05-08 19:49 59.27562 -75.01200 34668 ft 510 kts 37°
2026-05-08 19:50 59.33387 -74.93262 34665 ft 510 kts 37°
2026-05-08 19:50 59.39195 -74.85312 34670 ft 509 kts 37°
2026-05-08 19:51 59.45005 -74.77328 34669 ft 509 kts 37°
2026-05-08 19:51 59.50812 -74.69311 34667 ft 509 kts 37°
2026-05-08 19:52 59.56605 -74.61281 34655 ft 509 kts 37°
2026-05-08 19:52 59.62353 -74.53278 34668 ft 509 kts 37°
2026-05-08 19:53 59.68141 -74.45185 34669 ft 509 kts 37°
2026-05-08 19:53 59.73917 -74.37075 34668 ft 509 kts 37°
2026-05-08 19:54 59.79693 -74.28928 34679 ft 509 kts 37°
2026-05-08 19:54 59.85423 -74.20812 34669 ft 508 kts 37°
2026-05-08 19:55 59.91180 -74.12621 34665 ft 508 kts 37°
2026-05-08 19:55 59.96935 -74.04400 34665 ft 508 kts 38°
2026-05-08 19:56 60.02791 -73.96475 34674 ft 509 kts 34°
2026-05-08 19:56 60.08783 -73.88929 34665 ft 509 kts 34°
2026-05-08 19:57 60.14733 -73.81366 34664 ft 508 kts 34°
2026-05-08 19:57 60.20721 -73.73743 34663 ft 509 kts 34°
2026-05-08 19:58 60.26702 -73.66084 34661 ft 509 kts 34°
2026-05-08 19:58 60.32680 -73.58401 34646 ft 509 kts 34°
2026-05-08 19:59 60.38607 -73.50746 34668 ft 509 kts 34°
2026-05-08 19:59 60.44580 -73.43000 34661 ft 508 kts 34°
2026-05-08 20:00 60.50499 -73.35290 34660 ft 508 kts 34°
2026-05-08 20:00 60.56487 -73.27456 34664 ft 508 kts 35°
2026-05-08 20:01 60.62401 -73.19683 34655 ft 508 kts 35°
2026-05-08 20:01 60.68345 -73.11835 34656 ft 508 kts 35°
2026-05-08 20:02 60.74287 -73.03957 34652 ft 508 kts 35°
2026-05-08 20:02 60.80184 -72.96102 34655 ft 508 kts 35°
2026-05-08 20:03 60.86108 -72.88176 34654 ft 507 kts 35°
2026-05-08 20:03 60.92002 -72.80254 34650 ft 505 kts 35°
2026-05-08 20:04 60.97894 -72.72300 34646 ft 505 kts 35°
2026-05-08 20:04 61.03762 -72.64343 34646 ft 505 kts 35°
2026-05-08 20:05 61.09592 -72.56401 34637 ft 505 kts 36°
2026-05-08 20:05 61.15455 -72.48378 34633 ft 504 kts 36°
2026-05-08 20:06 61.21298 -72.40347 34635 ft 504 kts 36°
2026-05-08 20:06 61.27148 -72.32270 34633 ft 505 kts 36°
2026-05-08 20:07 61.32999 -72.24153 34625 ft 505 kts 36°
2026-05-08 20:07 61.38844 -72.16009 34592 ft 505 kts 36°
2026-05-08 20:08 61.44640 -72.07895 34581 ft 504 kts 36°
2026-05-08 20:08 61.50471 -71.99695 34569 ft 505 kts 36°
2026-05-08 20:09 61.56293 -71.91471 34569 ft 505 kts 36°
2026-05-08 20:09 61.62116 -71.83207 34551 ft 505 kts 36°
2026-05-08 20:10 61.67898 -71.74964 34570 ft 505 kts 36°
2026-05-08 20:10 61.73709 -71.66640 34580 ft 505 kts 37°
2026-05-08 20:11 61.79517 -71.58282 34576 ft 505 kts 37°
2026-05-08 20:11 61.85326 -71.49885 34583 ft 505 kts 37°
2026-05-08 20:12 61.91090 -71.41513 34573 ft 505 kts 37°
2026-05-08 20:12 61.96892 -71.33045 34575 ft 505 kts 37°
2026-05-08 20:13 62.02692 -71.24541 34558 ft 505 kts 37°
2026-05-08 20:13 62.08467 -71.16034 34559 ft 505 kts 37°
2026-05-08 20:14 62.14245 -71.07484 34532 ft 505 kts 37°
2026-05-08 20:14 62.19953 -70.98995 34548 ft 501 kts 38°
2026-05-08 20:15 62.25682 -70.90437 34546 ft 501 kts 37°
2026-05-08 20:15 62.31400 -70.81851 34544 ft 501 kts 37°
2026-05-08 20:16 62.37113 -70.73238 34545 ft 501 kts 38°
2026-05-08 20:16 62.42808 -70.64604 34534 ft 499 kts 38°
2026-05-08 20:17 62.48487 -70.55960 34533 ft 498 kts 38°
2026-05-08 20:17 62.54115 -70.47348 34523 ft 499 kts 38°
2026-05-08 20:18 62.59777 -70.38647 34530 ft 499 kts 38°
2026-05-08 20:18 62.65441 -70.29897 34514 ft 499 kts 38°
2026-05-08 20:19 62.71086 -70.21140 34501 ft 498 kts 38°
2026-05-08 20:19 62.76700 -70.12385 34439 ft 495 kts 38°
2026-05-08 20:20 62.79516 -70.07978 33762 ft 498 kts 38°
2026-05-08 20:20 62.82333 -70.03558 32994 ft 499 kts 38°
2026-05-08 20:20 62.85155 -69.99124 32215 ft 498 kts 39°
2026-05-08 20:20 62.87966 -69.94696 31458 ft 497 kts 39°
2026-05-08 20:21 62.90762 -69.90278 30724 ft 495 kts 39°
2026-05-08 20:21 62.93553 -69.85855 29971 ft 492 kts 39°
2026-05-08 20:21 62.96321 -69.81460 29214 ft 489 kts 39°
2026-05-08 20:21 62.99069 -69.77086 28378 ft 486 kts 39°
2026-05-08 20:22 63.01765 -69.72784 27612 ft 482 kts 39°
2026-05-08 20:22 63.04460 -69.68477 26965 ft 475 kts 39°
2026-05-08 20:22 63.07126 -69.64205 26315 ft 470 kts 39°
2026-05-08 20:22 63.08869 -69.61406 25880 ft 466 kts 39°
2026-05-08 20:23 63.12355 -69.55794 25046 ft 459 kts 39°
2026-05-08 20:23 63.14928 -69.51643 24432 ft 455 kts 38°
2026-05-08 20:23 63.17437 -69.47586 23828 ft 450 kts 38°
2026-05-08 20:23 63.19950 -69.43513 23257 ft 445 kts 38°
2026-05-08 20:24 63.22437 -69.39474 22584 ft 441 kts 38°
2026-05-08 20:24 63.24899 -69.35466 21908 ft 436 kts 38°
2026-05-08 20:24 63.27339 -69.31484 21237 ft 432 kts 38°
2026-05-08 20:24 63.29751 -69.27542 20586 ft 428 kts 38°
2026-05-08 20:25 63.32138 -69.23634 19943 ft 423 kts 39°
2026-05-08 20:25 63.34496 -69.19759 19312 ft 420 kts 38°
2026-05-08 20:25 63.36836 -69.15909 18698 ft 416 kts 38°
2026-05-08 20:25 63.39135 -69.12125 18108 ft 412 kts 38°
2026-05-08 20:26 63.41432 -69.08330 17473 ft 409 kts 39°
2026-05-08 20:26 63.43708 -69.04558 16782 ft 405 kts 38°
2026-05-08 20:26 63.45968 -69.00813 16108 ft 403 kts 38°
2026-05-08 20:26 63.48201 -68.97101 15592 ft 397 kts 39°
2026-05-08 20:27 63.50402 -68.93438 15080 ft 391 kts 39°
2026-05-08 20:27 63.52570 -68.89819 14575 ft 386 kts 39°
2026-05-08 20:27 63.54713 -68.86235 14093 ft 381 kts 39°
2026-05-08 20:27 63.56813 -68.82722 13874 ft 371 kts 39°
2026-05-08 20:28 63.58851 -68.79304 13614 ft 361 kts 39°
2026-05-08 20:28 63.60839 -68.75960 13353 ft 353 kts 39°
2026-05-08 20:28 63.62784 -68.72683 13066 ft 346 kts 39°
2026-05-08 20:28 63.64669 -68.69501 12791 ft 339 kts 39°
2026-05-08 20:29 63.66535 -68.66347 12530 ft 332 kts 39°
2026-05-08 20:29 63.68369 -68.63245 12220 ft 326 kts 39°
2026-05-08 20:29 63.70164 -68.60203 11980 ft 319 kts 39°
2026-05-08 20:29 63.71780 -68.56927 11816 ft 307 kts 55°
2026-05-08 20:30 63.72671 -68.52674 11703 ft 296 kts 78°
2026-05-08 20:30 63.72675 -68.48110 11590 ft 290 kts 103°
2026-05-08 20:30 63.72185 -68.45318 11517 ft 289 kts 119°
2026-05-08 20:30 63.70822 -68.42023 11414 ft 287 kts 139°
2026-05-08 20:31 63.69193 -68.39458 11192 ft 285 kts 141°
2026-05-08 20:31 63.67084 -68.36009 10876 ft 282 kts 141°
2026-05-08 20:31 63.66016 -68.34252 10676 ft 281 kts 136°
2026-05-08 20:31 63.64538 -68.31350 10302 ft 282 kts 130°
2026-05-08 20:32 63.63160 -68.28164 9927 ft 286 kts 129°
2026-05-08 20:32 63.61771 -68.25000 9570 ft 290 kts 131°
2026-05-08 20:32 63.60313 -68.21856 9279 ft 289 kts 131°
2026-05-08 20:32 63.58876 -68.18774 9027 ft 279 kts 130°
2026-05-08 20:33 63.57524 -68.15839 8745 ft 263 kts 131°
2026-05-08 20:33 63.56221 -68.12989 8193 ft 260 kts 129°
2026-05-08 20:33 63.55284 -68.09694 7659 ft 244 kts 100°
2026-05-08 20:33 63.55241 -68.06055 7192 ft 229 kts 72°
2026-05-08 20:34 63.56020 -68.03145 6710 ft 220 kts 42°
2026-05-08 20:34 63.57389 -68.01653 6145 ft 226 kts 13°
2026-05-08 20:34 63.60286 -68.04440 4940 ft 252 kts 312°
2026-05-08 20:35 63.60917 -68.08109 4576 ft 255 kts 281°
2026-05-08 20:35 63.60682 -68.12030 4056 ft 258 kts 253°
2026-05-08 20:35 63.59917 -68.15673 3495 ft 254 kts 249°
2026-05-08 20:35 63.59374 -68.19290 3093 ft 235 kts 272°
2026-05-08 20:36 63.59660 -68.22656 2694 ft 211 kts 305°
2026-05-08 20:36 63.60637 -68.24758 2515 ft 183 kts 340°
2026-05-08 20:36 63.61766 -68.25928 2518 ft 184 kts 334°
2026-05-08 20:36 63.62808 -68.27524 2507 ft 179 kts 326°
2026-05-08 20:37 63.63721 -68.29376 2498 ft 174 kts 322°
2026-05-08 20:37 63.64547 -68.31146 2500 ft 159 kts 324°
2026-05-08 20:37 63.65366 -68.32914 2404 ft 164 kts 321°
2026-05-08 20:37 63.66156 -68.34663 2188 ft 158 kts 320°
2026-05-08 20:38 63.66913 -68.36348 2005 ft 150 kts 321°
2026-05-08 20:38 63.67657 -68.37966 1712 ft 157 kts 324°
2026-05-08 20:38 63.68427 -68.39722 1480 ft 152 kts 322°
2026-05-08 20:38 63.69207 -68.41370 1323 ft 153 kts 321°
2026-05-08 20:39 63.69969 -68.43050 1181 ft 154 kts 321°
2026-05-08 20:39 63.70721 -68.44712 1076 ft 149 kts 320°
2026-05-08 20:39 63.71456 -68.46335 905 ft 148 kts 319°
2026-05-08 20:39 63.72171 -68.47912 736 ft 142 kts 319°
2026-05-08 20:40 63.72885 -68.49487 575 ft 144 kts 318°
2026-05-08 20:40 63.73606 -68.51084 414 ft 146 kts 318°
2026-05-08 20:40 63.74328 -68.52675 255 ft 148 kts 317°
2026-05-08 20:40 63.75071 -68.54258 138 ft 138 kts 317°
2026-05-08 20:41 63.75648 -68.55553 101 ft 81 kts 315°
2026-05-08 20:41 63.75883 -68.56088 106 ft 31 kts 315°
2026-05-08 20:41 63.76023 -68.56387 103 ft 25 kts 317°
2026-05-08 20:41 63.76132 -68.56615 103 ft 17 kts 316°
2026-05-08 20:42 63.76208 -68.56777 106 ft 13 kts 317°
2026-05-08 20:42 63.76264 -68.56893 105 ft 10 kts 317°
2026-05-08 20:42 63.76317 -68.57002 106 ft 9 kts 317°
2026-05-08 20:42 63.76369 -68.57112 105 ft 10 kts 317°
2026-05-08 20:43 63.76416 -68.57214 103 ft 7 kts 313°
2026-05-08 20:43 63.76437 -68.57265 104 ft 2 kts 313°
2026-05-08 20:43 63.76444 -68.57288 104 ft 3 kts 294°
2026-05-08 20:43 63.76427 -68.57404 105 ft 7 kts 226°
2026-05-08 20:44 63.76417 -68.57412 105 ft 3 kts 197°
2026-05-08 20:44 63.76366 -68.57387 105 ft 1 kts 134°
2026-05-08 20:44 63.76364 -68.57365 106 ft 3 kts 104°
2026-05-08 20:44 63.76348 -68.57236 105 ft 7 kts 107°
2026-05-08 20:45 63.76341 -68.57188 106 ft 5 kts 110°
2026-05-08 20:45 63.76323 -68.57119 108 ft 4 kts 125°
2026-05-08 20:45 63.76284 -68.56996 106 ft 14 kts 130°
2026-05-08 20:45 63.76202 -68.56811 107 ft 19 kts 135°
2026-05-08 20:46 63.76102 -68.56593 106 ft 21 kts 136°
2026-05-08 20:46 63.75988 -68.56347 106 ft 23 kts 136°
2026-05-08 20:46 63.75893 -68.56108 92 ft 19 kts 126°
2026-05-08 20:46 63.75845 -68.55841 105 ft 17 kts 104°
2026-05-08 20:47 63.75821 -68.55623 106 ft 13 kts 103°
2026-05-08 20:47 63.75799 -68.55418 105 ft 12 kts 103°
2026-05-08 20:47 63.75783 -68.55258 105 ft 10 kts 103°
2026-05-08 20:47 63.75752 -68.55109 106 ft 12 kts 130°
2026-05-08 20:48 63.75702 -68.54936 105 ft 13 kts 107°
2026-05-08 20:48 63.75708 -68.54757 103 ft 4 kts 57°
2026-05-08 20:48 63.75711 -68.54751 103 ft 0 kts 42°